Вернуться в каталог

STARLINK-36556

АктивенСвязьVLEO
NORAD 67642·PAYLOAD·🇺🇸 United States

Запущен Jan 30, 2026 с Cape Canaveral Space Force Station

Loading…

Ближайшие Пролёты (ближайшие 24 часа)

TLE

СвежийSource: CelesTrak SupGP

Эпоха: Sep 14, 2026, 21:34 UTC

1 67642C 26020AB  26257.89909722 -.00034830  00000+0 -12617-2 0  2578
2 67642  43.0008 151.5455 0001399 268.7218 213.0624 15.27592627    19

Отслеживайте STARLINK-36556 в реальном времени с AllMySat

Download on the App Store